| time (UTC) | temp C | wind direction | speed KPH | gust KPH | rain 1hr cm | rain 24hr cm | rain mn cm | humidity % | barometer mb |
| 20260506122132 | 23 | 125 | 14.5 | 27.4 | 0.00 | 0.00 | 0.00 | 43 | 1005.8 |
| 20260506121632 | 23 | 115 | 14.5 | 27.4 | 0.00 | 0.00 | 0.00 | 44 | 1005.7 |
| 20260506121132 | 23 | 154 | 14.5 | 27.4 | 0.00 | 0.00 | 0.00 | 42 | 1005.7 |
| 20260506120631 | 22 | 92 | 14.5 | 27.4 | 0.00 | 0.00 | 0.00 | 44 | 1005.7 |
| 20260506120130 | 22 | 117 | 12.9 | 24.1 | 0.00 | 0.00 | 0.00 | 45 | 1005.9 |
| 20260506115634 | 21 | 128 | 12.9 | 27.4 | 0.00 | 0.00 | 0.00 | 45 | 1006.0 |
| 20260506115130 | 21 | 117 | 14.5 | 27.4 | 0.00 | 0.00 | 0.00 | 45 | 1006.0 |
| 20260506114629 | 21 | 162 | 11.3 | 19.3 | 0.00 | 0.00 | 0.00 | 42 | 1006.1 |
| 20260506114128 | 21 | 193 | 8.0 | 16.1 | 0.00 | 0.00 | 0.00 | 46 | 1006.1 |
| 20260506113628 | 21 | 142 | 6.4 | 16.1 | 0.00 | 0.00 | 0.00 | 47 | 1006.1 |
| 20260506113128 | 21 | 80 | 9.7 | 24.1 | 0.00 | 0.00 | 0.00 | 48 | 1006.1 |
| 20260506112628 | 21 | 133 | 8.0 | 24.1 | 0.00 | 0.00 | 0.00 | 47 | 1006.3 |
| 20260506112126 | 22 | 127 | 6.4 | 17.7 | 0.00 | 0.00 | 0.00 | 45 | 1006.3 |
| 20260506111626 | 22 | 106 | 8.0 | 16.1 | 0.00 | 0.00 | 0.00 | 45 | 1006.4 |
| 20260506111126 | 22 | 83 | 6.4 | 16.1 | 0.00 | 0.00 | 0.00 | 46 | 1006.4 |
| 20260506110626 | 22 | 116 | 8.0 | 16.1 | 0.00 | 0.00 | 0.00 | 48 | 1006.5 |
| 20260506110129 | 21 | 136 | 9.7 | 17.7 | 0.00 | 0.00 | 0.00 | 47 | 1006.6 |
| 20260506105626 | 21 | 133 | 8.0 | 17.7 | 0.00 | 0.00 | 0.00 | 46 | 1006.7 |
| 20260506105125 | 21 | 105 | 6.4 | 17.7 | 0.00 | 0.00 | 0.00 | 45 | 1006.6 |
| 20260506104625 | 21 | 101 | 3.2 | 9.7 | 0.00 | 0.00 | 0.00 | 46 | 1006.6 |
| 20260506104125 | 21 | 131 | 1.6 | 9.7 | 0.00 | 0.00 | 0.00 | 46 | 1006.7 |
| 20260506103626 | 21 | 90 | 4.8 | 12.9 | 0.00 | 0.00 | 0.00 | 44 | 1006.8 |
| 20260506103130 | 21 | 122 | 8.0 | 17.7 | 0.00 | 0.00 | 0.00 | 45 | 1006.8 |
| 20260506102619 | 21 | 119 | 9.7 | 17.7 | 0.00 | 0.00 | 0.00 | 43 | 1006.8 |
| 20260506102118 | 21 | 109 | 9.7 | 16.1 | 0.00 | 0.00 | 0.00 | 46 | 1006.9 |
| 20260506101615 | 21 | 105 | 9.7 | 17.7 | 0.00 | 0.00 | 0.00 | 43 | 1006.9 |
| 20260506101114 | 21 | 124 | 6.4 | 17.7 | 0.00 | 0.00 | 0.00 | 42 | 1006.9 |
| 20260506100612 | 21 | 122 | 4.8 | 11.3 | 0.00 | 0.00 | 0.00 | 43 | 1007.0 |
| 20260506100110 | 21 | 200 | 4.8 | 11.3 | 0.00 | 0.00 | 0.00 | 49 | 1007.1 |
| 20260506095610 | 20 | 146 | 3.2 | 8.0 | 0.00 | 0.00 | 0.00 | 48 | 1007.1 |
| 20260506095109 | 20 | 40 | 4.8 | 8.0 | 0.00 | 0.00 | 0.00 | 49 | 1007.1 |
| 20260506094610 | 21 | 36 | 4.8 | 9.7 | 0.00 | 0.00 | 0.00 | 48 | 1007.3 |
| 20260506094109 | 20 | 11 | 4.8 | 9.7 | 0.00 | 0.00 | 0.00 | 52 | 1007.3 |
| 20260506093609 | 20 | 101 | 4.8 | 8.0 | 0.00 | 0.00 | 0.00 | 49 | 1007.4 |
| 20260506093108 | 20 | 165 | 4.8 | 14.5 | 0.00 | 0.00 | 0.00 | 50 | 1007.4 |
| 20260506092607 | 20 | 126 | 6.4 | 14.5 | 0.00 | 0.00 | 0.00 | 51 | 1007.4 |
| 20260506092104 | 21 | 171 | 6.4 | 11.3 | 0.00 | 0.00 | 0.00 | 50 | 1007.3 |
| 20260506091605 | 21 | 219 | 6.4 | 11.3 | 0.00 | 0.00 | 0.00 | 48 | 1007.5 |
| 20260506091103 | 21 | 227 | 6.4 | 12.9 | 0.00 | 0.00 | 0.00 | 47 | 1007.6 |
| 20260506090603 | 21 | 217 | 6.4 | 12.9 | 0.00 | 0.00 | 0.00 | 50 | 1007.7 |
| 20260506090109 | 21 | 244 | 6.4 | 17.7 | 0.00 | 0.00 | 0.00 | 48 | 1007.6 |
| 20260506085601 | 21 | 184 | 8.0 | 17.7 | 0.00 | 0.00 | 0.00 | 48 | 1007.5 |
| 20260506085103 | 21 | 169 | 6.4 | 16.1 | 0.00 | 0.00 | 0.00 | 50 | 1007.6 |
| 20260506084600 | 20 | 223 | 8.0 | 17.7 | 0.00 | 0.00 | 0.00 | 50 | 1007.6 |
| 20260506084053 | 20 | 124 | 9.7 | 17.7 | 0.00 | 0.00 | 0.00 | 52 | 1007.7 |
| 20260506083557 | 20 | 173 | 4.8 | 14.5 | 0.00 | 0.00 | 0.00 | 50 | 1007.7 |
| 20260506083051 | 20 | 180 | 3.2 | 14.5 | 0.00 | 0.00 | 0.00 | 53 | 1007.7 |
| 20260506082606 | 20 | 190 | 4.8 | 8.0 | 0.00 | 0.00 | 0.00 | 57 | 1007.8 |
| 20260506082047 | 19 | 124 | 3.2 | 8.0 | 0.00 | 0.00 | 0.00 | 56 | 1007.8 |
| 20260506081556 | 19 | 334 | 3.2 | 9.7 | 0.00 | 0.00 | 0.00 | 57 | 1007.8 |
| 20260506081049 | 18 | 253 | 4.8 | 11.3 | 0.00 | 0.00 | 0.00 | 59 | 1007.8 |
| 20260506080545 | 18 | 196 | 6.4 | 12.9 | 0.00 | 0.00 | 0.00 | 56 | 1007.7 |
| 20260506073040 | 17 | 320 | 3.2 | 9.7 | 0.00 | 0.00 | 0.00 | 63 | 1007.9 |
| 20260506072541 | 17 | 304 | 4.8 | 11.3 | 0.00 | 0.00 | 0.00 | 66 | 1007.9 |
| 20260506072041 | 17 | 261 | 4.8 | 11.3 | 0.00 | 0.00 | 0.00 | 68 | 1008.1 |
| 20260506071542 | 17 | 266 | 4.8 | 8.0 | 0.00 | 0.00 | 0.00 | 69 | 1008.1 |
| 20260506071032 | 17 | 268 | 4.8 | 8.0 | 0.00 | 0.00 | 0.00 | 68 | 1008.1 |
| 20260506070530 | 17 | 301 | 4.8 | 8.0 | 0.00 | 0.00 | 0.00 | 67 | 1008.1 |
| 20260506062030 | 15 | 288 | 6.4 | 12.9 | 0.00 | 0.00 | 0.00 | 73 | 1008.0 |
| 20260506061529 | 15 | 259 | 6.4 | 12.9 | 0.00 | 0.00 | 0.00 | 71 | 1008.1 |
| 20260506061027 | 15 | 263 | 8.0 | 16.1 | 0.00 | 0.00 | 0.00 | 72 | 1008.0 |
| 20260506060527 | 15 | 227 | 8.0 | 16.1 | 0.00 | 0.00 | 0.00 | 73 | 1008.0 |
| 20260506051022 | 11 | 232 | 4.8 | 11.3 | 0.00 | 0.00 | 0.00 | 88 | 1008.0 |
| 20260506050521 | 11 | 213 | 6.4 | 9.7 | 0.00 | 0.00 | 0.00 | 90 | 1008.1 |
| 20260506045019 | 10 | 222 | 4.8 | 11.3 | 0.00 | 0.00 | 0.00 | 94 | 1008.1 |
| 20260506044520 | 10 | 222 | 4.8 | 9.7 | 0.00 | 0.00 | 0.00 | 94 | 1008.2 |
| 20260506044020 | 9 | 213 | 6.4 | 9.7 | 0.00 | 0.00 | 0.00 | 94 | 1008.2 |
| 20260506043517 | 9 | 225 | 6.4 | 9.7 | 0.00 | 0.00 | 0.00 | 93 | 1008.1 |
| 20260506043011 | 8 | 217 | 3.2 | 9.7 | 0.00 | 0.00 | 0.00 | 92 | 1008.1 |
| 20260506042511 | 8 | 228 | 1.6 | 4.8 | 0.00 | 0.00 | 0.00 | 91 | 1008.1 |
| 20260506042013 | 8 | 227 | 0.0 | 1.6 | 0.00 | 0.00 | 0.00 | 90 | 1008.0 |
| 20260506041513 | 8 | 227 | 0.0 | 1.6 | 0.00 | 0.00 | 0.00 | 90 | 1007.8 |
| 20260506041012 | 8 | 227 | 0.0 | 1.6 | 0.00 | 0.00 | 0.00 | 90 | 1007.7 |
| 20260506040509 | 8 | 227 | 0.0 | 3.2 | 0.00 | 0.00 | 0.00 | 90 | 1007.6 |
| 20260506040008 | 8 | 227 | 1.6 | 3.2 | 0.00 | 0.00 | 0.00 | 90 | 1007.7 |
| 20260506035503 | 8 | 227 | 1.6 | 3.2 | 0.00 | 0.00 | 0.00 | 90 | 1007.6 |
| 20260506035002 | 8 | 227 | 1.6 | 3.2 | 0.00 | 0.00 | 0.00 | 89 | 1007.5 |
| 20260506034505 | 8 | 227 | 0.0 | 0.0 | 0.00 | 0.00 | 0.00 | 89 | 1007.4 |
| 20260506034004 | 9 | 227 | 0.0 | 0.0 | 0.00 | 0.00 | 0.00 | 89 | 1007.4 |
| 20260506033502 | 9 | 227 | 0.0 | 0.0 | 0.00 | 0.00 | 0.00 | 89 | 1007.4 |
| 20260506033005 | 9 | 227 | 0.0 | 0.0 | 0.00 | 0.00 | 0.00 | 89 | 1007.4 |
| 20260506032502 | 9 | 227 | 0.0 | 0.0 | 0.00 | 0.00 | 0.00 | 89 | 1007.4 |
| 20260506031955 | 9 | 227 | 0.0 | 0.0 | 0.00 | 0.00 | 0.00 | 88 | 1007.4 |
| 20260506031455 | 9 | 227 | 0.0 | 0.0 | 0.00 | 0.00 | 0.00 | 86 | 1007.3 |
| 20260506030951 | 9 | 227 | 0.0 | 0.0 | 0.00 | 0.00 | 0.00 | 85 | 1007.3 |
| 20260506030452 | 10 | 227 | 0.0 | 0.0 | 0.00 | 0.00 | 0.00 | 85 | 1007.3 |
| 20260506025949 | 10 | 227 | 0.0 | 0.0 | 0.00 | 0.00 | 0.00 | 85 | 1007.1 |
| 20260506025447 | 10 | 227 | 0.0 | 1.6 | 0.00 | 0.00 | 0.00 | 85 | 1007.3 |
| 20260506024946 | 10 | 227 | 1.6 | 4.8 | 0.00 | 0.00 | 0.00 | 85 | 1007.3 |
| 20260506024445 | 10 | 227 | 3.2 | 4.8 | 0.00 | 0.00 | 0.00 | 85 | 1007.4 |
| 20260506023946 | 10 | 227 | 1.6 | 4.8 | 0.00 | 0.00 | 0.00 | 86 | 1007.4 |
| 20260506023446 | 11 | 223 | 1.6 | 8.0 | 0.00 | 0.00 | 0.00 | 88 | 1007.5 |
| 20260506022945 | 11 | 221 | 3.2 | 8.0 | 0.00 | 0.00 | 0.00 | 89 | 1007.5 |
| 20260506022441 | 11 | 228 | 4.8 | 8.0 | 0.00 | 0.00 | 0.00 | 89 | 1007.5 |
| 20260506021944 | 11 | 222 | 4.8 | 8.0 | 0.00 | 0.00 | 0.00 | 90 | 1007.5 |
| 20260506021441 | 11 | 236 | 3.2 | 6.4 | 0.00 | 0.00 | 0.00 | 89 | 1007.5 |
| 20260506020941 | 11 | 239 | 3.2 | 4.8 | 0.00 | 0.00 | 0.00 | 89 | 1007.5 |
| 20260506020442 | 11 | 239 | 3.2 | 6.4 | 0.00 | 0.00 | 0.00 | 89 | 1007.5 |
| 20260506015941 | 11 | 239 | 3.2 | 6.4 | 0.00 | 0.00 | 0.00 | 90 | 1007.6 |
| 20260506015440 | 11 | 239 | 4.8 | 8.0 | 0.00 | 0.00 | 0.00 | 90 | 1007.6 |
| 20260506014936 | 11 | 247 | 4.8 | 8.0 | 0.00 | 0.00 | 0.00 | 90 | 1007.6 |
| 20260506014436 | 11 | 259 | 3.2 | 6.4 | 0.00 | 0.00 | 0.00 | 89 | 1007.6 |
| 20260506013937 | 11 | 258 | 3.2 | 9.7 | 0.00 | 0.00 | 0.00 | 89 | 1007.6 |
| 20260506013434 | 11 | 263 | 3.2 | 9.7 | 0.00 | 0.00 | 0.00 | 89 | 1007.6 |
| 20260506012930 | 11 | 261 | 3.2 | 6.4 | 0.00 | 0.00 | 0.00 | 88 | 1007.6 |
| 20260506012432 | 11 | 259 | 1.6 | 6.4 | 0.00 | 0.00 | 0.00 | 88 | 1007.6 |
| 20260506011932 | 11 | 258 | 0.0 | 4.8 | 0.00 | 0.00 | 0.00 | 87 | 1007.6 |
| 20260506011432 | 11 | 258 | 1.6 | 4.8 | 0.00 | 0.00 | 0.00 | 87 | 1007.6 |
| 20260506010929 | 11 | 258 | 1.6 | 6.4 | 0.00 | 0.00 | 0.00 | 87 | 1007.6 |
| 20260506010428 | 12 | 259 | 1.6 | 6.4 | 0.00 | 0.00 | 0.00 | 87 | 1007.6 |
| 20260506005929 | 12 | 254 | 3.2 | 6.4 | 0.00 | 0.00 | 0.00 | 87 | 1007.5 |
| 20260506005430 | 12 | 250 | 3.2 | 8.0 | 0.00 | 0.00 | 0.00 | 87 | 1007.6 |
| 20260506004931 | 12 | 261 | 3.2 | 8.0 | 0.00 | 0.00 | 0.00 | 87 | 1007.5 |
| 20260506004430 | 12 | 265 | 3.2 | 8.0 | 0.00 | 0.00 | 0.00 | 86 | 1007.5 |
| 20260506003929 | 12 | 271 | 3.2 | 9.7 | 0.00 | 0.00 | 0.00 | 86 | 1007.4 |
| 20260506003437 | 12 | 290 | 4.8 | 11.3 | 0.00 | 0.00 | 0.00 | 86 | 1007.3 |
| 20260506002929 | 12 | 255 | 6.4 | 12.9 | 0.00 | 0.00 | 0.00 | 86 | 1007.4 |
| 20260506002429 | 12 | 188 | 6.4 | 14.5 | 0.00 | 0.00 | 0.00 | 85 | 1007.3 |
| 20260506001929 | 12 | 255 | 6.4 | 14.5 | 0.00 | 0.00 | 0.00 | 84 | 1007.4 |
| 20260506001430 | 12 | 284 | 6.4 | 14.5 | 0.00 | 0.00 | 0.00 | 83 | 1007.1 |
| 20260506000933 | 13 | 290 | 6.4 | 9.7 | 0.00 | 0.00 | 0.00 | 82 | 1007.1 |
| 20260506000423 | 13 | 274 | 4.8 | 9.7 | 0.00 | 0.00 | 0.00 | 81 | 1007.0 |
| 20260505235925 | 13 | 277 | 4.8 | 12.9 | 0.00 | 0.00 | 0.00 | 81 | 1007.0 |
| 20260505235423 | 13 | 275 | 6.4 | 12.9 | 0.00 | 0.00 | 0.00 | 81 | 1006.9 |
| 20260505234924 | 13 | 279 | 8.0 | 16.1 | 0.00 | 0.00 | 0.00 | 80 | 1006.9 |
| 20260505234422 | 13 | 290 | 8.0 | 16.1 | 0.00 | 0.00 | 0.00 | 80 | 1006.9 |
| 20260505233923 | 13 | 283 | 8.0 | 14.5 | 0.00 | 0.00 | 0.00 | 79 | 1006.9 |
| 20260505233421 | 13 | 306 | 9.7 | 17.7 | 0.00 | 0.00 | 0.00 | 78 | 1006.9 |
| 20260505232921 | 14 | 284 | 9.7 | 17.7 | 0.00 | 0.00 | 0.00 | 78 | 1006.8 |
| 20260505232421 | 14 | 313 | 9.7 | 19.3 | 0.00 | 0.00 | 0.00 | 76 | 1006.8 |
| 20260505231917 | 14 | 296 | 9.7 | 19.3 | 0.00 | 0.00 | 0.00 | 76 | 1006.8 |
| 20260505231414 | 14 | 316 | 11.3 | 20.9 | 0.00 | 0.00 | 0.00 | 76 | 1006.6 |
| 20260505230916 | 14 | 300 | 11.3 | 22.5 | 0.00 | 0.00 | 0.00 | 76 | 1006.5 |
| 20260505230415 | 15 | 300 | 11.3 | 22.5 | 0.00 | 0.00 | 0.00 | 75 | 1006.4 |
| 20260505225915 | 15 | 325 | 9.7 | 19.3 | 0.00 | 0.00 | 0.00 | 75 | 1006.5 |
| 20260505225418 | 15 | 327 | 9.7 | 17.7 | 0.00 | 0.00 | 0.00 | 74 | 1006.4 |
| 20260505224915 | 15 | 299 | 11.3 | 19.3 | 0.00 | 0.00 | 0.00 | 73 | 1006.4 |
| 20260505224415 | 15 | 303 | 11.3 | 25.7 | 0.00 | 0.00 | 0.00 | 73 | 1006.4 |
| 20260505223915 | 15 | 319 | 11.3 | 25.7 | 0.00 | 0.00 | 0.00 | 72 | 1006.4 |
| 20260505223415 | 15 | 299 | 11.3 | 25.7 | 0.00 | 0.00 | 0.00 | 71 | 1006.5 |
| 20260505222915 | 16 | 276 | 14.5 | 27.4 | 0.00 | 0.00 | 0.00 | 70 | 1006.6 |
| 20260505222414 | 16 | 287 | 14.5 | 33.8 | 0.00 | 0.00 | 0.00 | 68 | 1006.7 |
| 20260505221915 | 16 | 291 | 14.5 | 33.8 | 0.00 | 0.00 | 0.00 | 66 | 1006.5 |
| 20260505221416 | 16 | 288 | 12.9 | 29.0 | 0.00 | 0.00 | 0.00 | 65 | 1006.4 |
| 20260505220917 | 16 | 263 | 11.3 | 22.5 | 0.00 | 0.00 | 0.00 | 64 | 1006.1 |
| 20260505220415 | 16 | 306 | 12.9 | 25.7 | 0.00 | 0.00 | 0.00 | 63 | 1005.9 |
| 20260505215916 | 16 | 329 | 11.3 | 25.7 | 0.00 | 0.00 | 0.00 | 63 | 1006.0 |
| 20260505215416 | 16 | 278 | 9.7 | 24.1 | 0.00 | 0.00 | 0.00 | 63 | 1006.1 |
| 20260505214914 | 16 | 304 | 9.7 | 19.3 | 0.00 | 0.00 | 0.00 | 62 | 1006.1 |
| 20260505214414 | 16 | 294 | 11.3 | 24.1 | 0.00 | 0.00 | 0.00 | 62 | 1006.2 |
| 20260505213905 | 17 | 306 | 11.3 | 24.1 | 0.00 | 0.00 | 0.00 | 61 | 1006.2 |
| 20260505213403 | 17 | 291 | 11.3 | 22.5 | 0.00 | 0.00 | 0.00 | 61 | 1006.2 |
| 20260505212904 | 17 | 280 | 12.9 | 29.0 | 0.00 | 0.00 | 0.00 | 60 | 1006.1 |
| 20260505212408 | 17 | 292 | 14.5 | 29.0 | 0.00 | 0.00 | 0.00 | 60 | 1006.1 |
| 20260505211905 | 17 | 246 | 14.5 | 30.6 | 0.00 | 0.00 | 0.00 | 60 | 1006.1 |
| 20260505211404 | 17 | 265 | 14.5 | 30.6 | 0.00 | 0.00 | 0.00 | 60 | 1006.2 |
| 20260505210903 | 17 | 264 | 12.9 | 29.0 | 0.00 | 0.00 | 0.00 | 59 | 1006.0 |
| 20260505210400 | 17 | 222 | 12.9 | 29.0 | 0.00 | 0.00 | 0.00 | 58 | 1006.0 |
| 20260505205901 | 17 | 254 | 14.5 | 38.6 | 0.00 | 0.00 | 0.00 | 58 | 1005.8 |
| 20260505205402 | 17 | 223 | 14.5 | 38.6 | 0.00 | 0.00 | 0.00 | 58 | 1005.6 |
| 20260505204902 | 17 | 302 | 14.5 | 27.4 | 0.00 | 0.00 | 0.00 | 59 | 1005.5 |
| 20260505204402 | 17 | 225 | 11.3 | 29.0 | 0.00 | 0.00 | 0.00 | 58 | 1005.2 |
| 20260505203901 | 17 | 243 | 11.3 | 29.0 | 0.00 | 0.00 | 0.00 | 58 | 1005.2 |
| 20260505203401 | 17 | 239 | 11.3 | 25.7 | 0.00 | 0.00 | 0.00 | 58 | 1005.1 |
| 20260505202901 | 17 | 214 | 11.3 | 24.1 | 0.00 | 0.00 | 0.00 | 58 | 1005.1 |
| 20260505202401 | 17 | 223 | 11.3 | 24.1 | 0.00 | 0.00 | 0.00 | 58 | 1005.0 |
| 20260505201901 | 17 | 250 | 8.0 | 22.5 | 0.00 | 0.00 | 0.00 | 59 | 1004.9 |
| 20260505201356 | 17 | 207 | 6.4 | 14.5 | 0.00 | 0.00 | 0.00 | 60 | 1004.9 |
| 20260505200850 | 17 | 267 | 6.4 | 16.1 | 0.00 | 0.00 | 0.00 | 60 | 1004.8 |
| 20260505200350 | 17 | 259 | 3.2 | 16.1 | 0.00 | 0.00 | 0.00 | 60 | 1004.7 |
| 20260505195848 | 17 | 260 | 0.0 | 8.0 | 0.00 | 0.00 | 0.00 | 64 | 1004.5 |
| 20260505195348 | 17 | 71 | 0.0 | 0.0 | 0.00 | 0.00 | 0.00 | 62 | 1004.2 |
| 20260505194846 | 17 | 71 | 0.0 | 0.0 | 0.00 | 0.00 | 0.00 | 63 | 1004.1 |
| 20260505194343 | 17 | 71 | 0.0 | 0.0 | 0.00 | 0.00 | 0.00 | 62 | 1004.1 |
| 20260505193843 | 17 | 71 | 0.0 | 0.0 | 0.00 | 0.00 | 0.00 | 61 | 1004.0 |
| 20260505193340 | 17 | 71 | 0.0 | 0.0 | 0.00 | 0.00 | 0.00 | 62 | 1003.9 |
| 20260505192840 | 17 | 71 | 0.0 | 0.0 | 0.00 | 0.00 | 0.00 | 62 | 1003.8 |
| 20260505192340 | 18 | 71 | 1.6 | 6.4 | 0.00 | 0.00 | 0.00 | 63 | 1003.8 |
| 20260505191838 | 18 | 71 | 1.6 | 6.4 | 0.00 | 0.00 | 0.00 | 62 | 1003.8 |
| 20260505191337 | 18 | 26 | 1.6 | 4.8 | 0.00 | 0.00 | 0.00 | 58 | 1003.7 |
| 20260505190837 | 18 | 26 | 1.6 | 4.8 | 0.00 | 0.00 | 0.00 | 58 | 1003.5 |
| 20260505190336 | 18 | 96 | 0.0 | 3.2 | 0.00 | 0.00 | 0.00 | 59 | 1003.5 |
| 20260505185835 | 18 | 96 | 0.0 | 3.2 | 0.00 | 0.00 | 0.00 | 57 | 1003.5 |
| 20260505185332 | 18 | 123 | 0.0 | 0.0 | 0.00 | 0.00 | 0.00 | 57 | 1003.4 |
| 20260505184831 | 19 | 123 | 0.0 | 0.0 | 0.00 | 0.00 | 0.00 | 55 | 1003.4 |
| 20260505184333 | 19 | 123 | 0.0 | 0.0 | 0.00 | 0.00 | 0.00 | 55 | 1003.4 |
| 20260505183833 | 20 | 123 | 0.0 | 0.0 | 0.00 | 0.00 | 0.00 | 55 | 1003.4 |
| 20260505183333 | 20 | 123 | 0.0 | 0.0 | 0.00 | 0.00 | 0.00 | 55 | 1003.4 |
| 20260505182825 | 20 | 123 | 0.0 | 0.0 | 0.00 | 0.00 | 0.00 | 53 | 1003.3 |
| 20260505182319 | 20 | 123 | 0.0 | 0.0 | 0.00 | 0.00 | 0.00 | 52 | 1003.4 |
| 20260505181826 | 20 | 123 | 0.0 | 0.0 | 0.00 | 0.00 | 0.00 | 50 | 1003.4 |
| 20260505181317 | 21 | 123 | 0.0 | 0.0 | 0.00 | 0.00 | 0.00 | 49 | 1003.4 |
| 20260505180816 | 21 | 123 | 0.0 | 0.0 | 0.00 | 0.00 | 0.00 | 48 | 1003.4 |
| 20260505180314 | 21 | 123 | 0.0 | 0.0 | 0.00 | 0.00 | 0.00 | 48 | 1003.4 |
| 20260505175812 | 22 | 123 | 0.0 | 0.0 | 0.00 | 0.00 | 0.00 | 48 | 1003.4 |
| 20260505175312 | 22 | 123 | 0.0 | 0.0 | 0.00 | 0.00 | 0.00 | 44 | 1003.4 |
| 20260505174808 | 22 | 123 | 0.0 | 0.0 | 0.00 | 0.00 | 0.00 | 43 | 1003.4 |
| 20260505174308 | 23 | 123 | 0.0 | 0.0 | 0.00 | 0.00 | 0.00 | 41 | 1003.5 |
| 20260505173809 | 23 | 123 | 0.0 | 3.2 | 0.00 | 0.00 | 0.00 | 39 | 1003.5 |
| 20260505173309 | 23 | 123 | 1.6 | 4.8 | 0.00 | 0.00 | 0.00 | 39 | 1003.5 |
| 20260505172809 | 23 | 123 | 3.2 | 4.8 | 0.00 | 0.00 | 0.00 | 38 | 1003.5 |
| 20260505172308 | 23 | 123 | 3.2 | 6.4 | 0.00 | 0.00 | 0.00 | 35 | 1003.5 |
| 20260505171808 | 23 | 123 | 3.2 | 6.4 | 0.00 | 0.00 | 0.00 | 35 | 1003.5 |
| 20260505171305 | 24 | 128 | 3.2 | 6.4 | 0.00 | 0.00 | 0.00 | 35 | 1003.5 |
| 20260505170804 | 24 | 131 | 3.2 | 6.4 | 0.00 | 0.00 | 0.00 | 34 | 1003.7 |
| 20260505170303 | 24 | 107 | 3.2 | 9.7 | 0.00 | 0.00 | 0.00 | 34 | 1003.7 |
| 20260505165758 | 24 | 100 | 3.2 | 9.7 | 0.00 | 0.00 | 0.00 | 33 | 1003.7 |
| 20260505165258 | 25 | 117 | 3.2 | 8.0 | 0.00 | 0.00 | 0.00 | 33 | 1003.8 |
| 20260505164758 | 25 | 142 | 4.8 | 11.3 | 0.00 | 0.00 | 0.00 | 33 | 1003.7 |
| 20260505164255 | 25 | 129 | 4.8 | 11.3 | 0.00 | 0.00 | 0.00 | 31 | 1003.7 |
| 20260505163745 | 25 | 119 | 6.4 | 12.9 | 0.00 | 0.00 | 0.00 | 32 | 1003.8 |
| 20260505163243 | 25 | 140 | 8.0 | 14.5 | 0.00 | 0.00 | 0.00 | 32 | 1003.9 |
| 20260505162738 | 25 | 146 | 6.4 | 14.5 | 0.00 | 0.00 | 0.00 | 32 | 1003.9 |
| 20260505162237 | 25 | 134 | 6.4 | 12.9 | 0.00 | 0.00 | 0.00 | 33 | 1003.9 |
| 20260505161737 | 25 | 138 | 9.7 | 16.1 | 0.00 | 0.00 | 0.00 | 32 | 1004.0 |
| 20260505161238 | 25 | 144 | 8.0 | 16.1 | 0.00 | 0.00 | 0.00 | 31 | 1004.1 |
| 20260505160736 | 25 | 148 | 6.4 | 14.5 | 0.00 | 0.00 | 0.00 | 32 | 1004.1 |
| 20260505160238 | 25 | 92 | 4.8 | 14.5 | 0.00 | 0.00 | 0.00 | 32 | 1004.2 |
| 20260505153229 | 25 | 115 | 9.7 | 22.5 | 0.00 | 0.00 | 0.00 | 31 | 1004.5 |
| 20260505152729 | 25 | 138 | 8.0 | 19.3 | 0.00 | 0.00 | 0.00 | 31 | 1004.5 |
| 20260505152229 | 25 | 13 | 8.0 | 17.7 | 0.00 | 0.00 | 0.00 | 31 | 1004.6 |
| 20260505151730 | 25 | 124 | 8.0 | 17.7 | 0.00 | 0.00 | 0.00 | 31 | 1004.7 |
| 20260505151229 | 25 | 124 | 8.0 | 20.9 | 0.00 | 0.00 | 0.00 | 31 | 1004.7 |
| 20260505150731 | 25 | 134 | 9.7 | 20.9 | 0.00 | 0.00 | 0.00 | 32 | 1004.7 |
| 20260505150230 | 25 | 141 | 9.7 | 17.7 | 0.00 | 0.00 | 0.00 | 32 | 1004.8 |
| 20260505140214 | 25 | 101 | 12.9 | 24.1 | 0.00 | 0.00 | 0.00 | 37 | 1005.6 |
| 20260505130141 | 23 | 84 | 8.0 | 17.7 | 0.00 | 0.00 | 0.00 | 40 | 1006.1 |
| 20260505124643 | 23 | 25 | 6.4 | 16.1 | 0.00 | 0.00 | 0.00 | 39 | 1006.4 |
| 20260505124140 | 23 | 140 | 6.4 | 16.1 | 0.00 | 0.00 | 0.00 | 38 | 1006.4 |
| 20260505123639 | 23 | 117 | 9.7 | 24.1 | 0.00 | 0.00 | 0.00 | 38 | 1006.5 |
| 20260505123141 | 24 | 61 | 12.9 | 29.0 | 0.00 | 0.00 | 0.00 | 36 | 1006.5 |
| 20260505122639 | 24 | 143 | 12.9 | 29.0 | 0.00 | 0.00 | 0.00 | 36 | 1006.4 |